Location: Cambroso
(45.2833°N, 12.0850°E)
Time: 18:09:13
(UTC+00:00)

CZ-4 R/B - Pass Details

Date: 21 January 2021
Orbit: 530 x 599 km, 97.7° (Epoch: 27 February)

Event Time Altitude Azimuth Distance (km) Brightness Sun altitude
Rises 17:50:08 0° 170° (S) 2,800 4.9 -18.5°
Reaches altitude 10° 17:52:18 10° 172° (S) 1,895 4.1 -18.9°
Maximum altitude 17:56:24 75° 257° (WSW) 599 1.5 -19.6°
Drops below altitude 10° 18:00:28 10° 344° (NNW) 1,870 4.1 -20.3°
Sets 18:02:35 0° 346° (NNW) 2,760 5.0 -20.7°
